Date,Time,Wetness (Wet Dry or Ice),Wind Speed (m/s),Temperature (C),Humidity (%),Pressure (mb),Radiation (W/m^2)
2021-05-02,23:35:00,DRY,2.25,2.00,46.0,771.00,0.6
2021-05-02,23:40:00,DRY,2.27,1.90,44.0,771.00,1.4
2021-05-02,23:45:00,DRY,1.75,2.00,37.5,771.00,0.7
2021-05-02,23:50:00,DRY,2.67,2.07,34.0,771.00,1.4
2021-05-02,23:55:00,DRY,2.90,2.05,39.0,771.00,1.1
2021-05-03,00:00:00,DRY,3.27,1.90,41.7,771.00,1.0
2021-05-03,00:05:00,DRY,3.20,1.90,47.0,771.00,0.9
2021-05-03,00:10:00,WET,2.80,0.60,81.0,771.00,1.6
2021-05-03,00:15:00,WET,3.05,0.25,91.5,771.00,1.1
2021-05-03,00:20:00,WET,3.17,0.13,96.7,771.00,1.1
2021-05-03,00:25:00,WET,3.45,0.10,87.5,771.00,2.0
2021-05-03,00:30:00,WET,3.05,0.55,93.5,771.00,2.1
2021-05-03,00:35:00,WET,5.20,0.35,100.0,771.00,1.5
2021-05-03,00:40:00,WET,4.70,0.50,100.0,771.00,1.6
2021-05-03,00:45:00,WET,5.55,0.80,100.0,771.00,1.2
2021-05-03,00:50:00,WET,4.53,0.87,100.0,771.00,1.3
2021-05-03,00:55:00,WET,4.30,0.95,99.0,771.00,2.4
2021-05-03,01:00:00,WET,5.43,0.93,99.3,770.67,1.3
2021-05-03,01:05:00,WET,5.65,1.00,100.0,770.50,1.4
2021-05-03,01:10:00,WET,5.60,1.03,100.0,770.33,1.5
2021-05-03,01:15:00,WET,6.85,1.10,100.0,770.00,1.6
2021-05-03,01:20:00,WET,5.47,1.07,100.0,770.00,1.0
2021-05-03,01:25:00,WET,5.30,1.10,100.0,770.00,1.3
2021-05-03,01:30:00,WET,4.73,1.10,100.0,770.00,1.3
2021-05-03,01:35:00,WET,4.25,1.10,100.0,770.00,1.4
2021-05-03,01:40:00,WET,4.77,1.17,100.0,770.00,1.4
2021-05-03,01:45:00,WET,5.90,1.15,100.0,770.00,1.1
2021-05-03,01:50:00,WET,5.37,1.10,100.0,770.00,2.1
2021-05-03,01:55:00,WET,5.90,1.10,100.0,770.00,1.0
2021-05-03,02:00:00,WET,5.20,1.03,100.0,770.00,1.5
2021-05-03,02:05:00,WET,5.15,1.00,100.0,770.00,2.0
2021-05-03,02:10:00,WET,4.27,1.10,100.0,770.00,1.4
2021-05-03,02:15:00,WET,4.80,1.05,100.0,770.00,1.4
2021-05-03,02:20:00,WET,5.43,1.00,100.0,770.00,1.2
2021-05-03,02:25:00,WET,5.40,1.00,100.0,770.00,2.0
2021-05-03,02:30:00,WET,4.87,0.90,100.0,770.00,1.7
2021-05-03,02:35:00,WET,4.25,0.90,100.0,770.00,2.2
2021-05-03,02:40:00,WET,4.53,1.03,100.0,770.00,1.7
2021-05-03,02:45:00,WET,6.90,1.50,100.0,770.00,1.6
2021-05-03,02:50:00,WET,6.37,1.40,100.0,770.00,1.9
2021-05-03,02:55:00,WET,6.55,1.35,100.0,770.00,1.4
2021-05-03,03:00:00,WET,5.37,1.13,100.0,770.00,1.8
2021-05-03,03:05:00,WET,6.00,1.00,100.0,770.00,1.7
2021-05-03,03:10:00,WET,5.37,1.03,100.0,770.00,1.7
2021-05-03,03:15:00,WET,4.90,1.15,100.0,770.00,1.8
2021-05-03,03:20:00,WET,5.10,1.17,100.0,770.00,2.2
2021-05-03,03:25:00,WET,5.00,1.15,100.0,770.00,2.4
2021-05-03,03:30:00,WET,6.20,1.43,100.0,770.00,2.3
2021-05-03,03:35:00,WET,5.00,1.70,100.0,770.00,2.0
2021-05-03,03:40:00,WET,5.90,1.50,100.0,770.00,1.9
2021-05-03,03:45:00,WET,5.30,1.40,100.0,770.00,2.5
2021-05-03,03:50:00,WET,5.03,1.37,100.0,770.00,3.1
2021-05-03,03:55:00,WET,4.55,1.30,100.0,770.00,3.0
2021-05-03,04:00:00,WET,2.70,1.33,100.0,770.00,3.2
2021-05-03,04:05:00,WET,5.10,1.45,100.0,770.00,3.8
2021-05-03,04:10:00,WET,4.07,1.40,100.0,770.00,3.8
2021-05-03,04:15:00,WET,3.90,1.50,100.0,770.00,3.0
2021-05-03,04:20:00,WET,4.40,1.60,100.0,770.00,2.8
2021-05-03,04:25:00,WET,5.05,1.70,100.0,770.00,4.1
2021-05-03,04:30:00,WET,5.23,1.77,100.0,770.00,3.2
2021-05-03,04:35:00,WET,3.65,1.70,100.0,770.00,4.0
2021-05-03,04:40:00,WET,5.07,1.83,100.0,770.00,3.7
2021-05-03,04:45:00,WET,5.35,2.00,100.0,770.00,3.3
2021-05-03,04:50:00,WET,3.97,1.93,100.0,770.00,2.6
2021-05-03,04:55:00,WET,5.30,1.85,100.0,770.00,3.5
2021-05-03,05:00:00,WET,4.50,1.80,100.0,770.00,3.0
2021-05-03,05:05:00,WET,4.60,1.80,100.0,770.00,2.5
2021-05-03,05:10:00,WET,4.50,1.80,100.0,770.00,3.4
2021-05-03,05:15:00,WET,4.80,1.70,100.0,770.00,3.1
2021-05-03,05:20:00,WET,4.93,1.70,100.0,769.67,3.3
2021-05-03,05:25:00,WET,4.50,1.70,100.0,770.00,3.5
2021-05-03,05:30:00,WET,4.47,1.70,100.0,770.00,3.1
2021-05-03,05:35:00,WET,4.35,1.70,100.0,769.00,2.9
2021-05-03,05:40:00,WET,4.97,1.63,100.0,770.00,3.7
2021-05-03,05:45:00,WET,4.75,1.60,100.0,770.00,3.5
2021-05-03,05:50:00,WET,4.87,1.70,100.0,769.67,3.0
2021-05-03,05:55:00,WET,4.45,1.80,100.0,770.00,3.4
2021-05-03,06:00:00,WET,4.43,1.80,100.0,770.00,3.0
2021-05-03,06:05:00,WET,3.95,1.65,100.0,770.00,3.6
2021-05-03,06:10:00,WET,4.40,1.67,100.0,770.00,4.2
2021-05-03,06:15:00,WET,3.70,1.60,100.0,770.00,4.2
2021-05-03,06:20:00,WET,4.23,1.53,100.0,770.00,4.7
2021-05-03,06:25:00,WET,3.85,1.50,100.0,770.00,5.3
2021-05-03,06:30:00,WET,3.17,1.40,100.0,770.00,8.0
2021-05-03,06:35:00,WET,3.60,1.25,100.0,770.00,16.4
2021-05-03,06:40:00,WET,4.23,1.47,100.0,770.00,28.8
2021-05-03,06:45:00,WET,5.25,1.70,100.0,770.00,49.2
2021-05-03,06:50:00,WET,5.00,1.80,100.0,770.00,65.9
2021-05-03,06:55:00,WET,5.55,1.85,100.0,770.00,82.0
2021-05-03,07:00:00,WET,5.07,1.87,100.0,770.00,86.6
2021-05-03,07:05:00,WET,4.15,1.75,100.0,770.00,105.8
2021-05-03,07:10:00,WET,3.10,1.50,100.0,770.00,87.3
2021-05-03,07:15:00,WET,3.05,1.60,100.0,770.00,134.8
2021-05-03,07:20:00,WET,2.87,1.90,100.0,770.00,156.8
2021-05-03,07:25:00,WET,3.45,2.10,100.0,770.00,184.8
2021-05-03,07:30:00,WET,4.47,1.93,100.0,770.00,148.5
2021-05-03,07:35:00,WET,4.60,2.00,98.5,770.00,219.5
2021-05-03,07:40:00,WET,5.23,2.33,98.3,770.00,238.7
2021-05-03,07:45:00,WET,5.90,2.60,97.5,770.00,258.5
2021-05-03,07:50:00,WET,5.90,2.77,97.3,770.00,278.3
2021-05-03,07:55:00,WET,7.05,2.75,96.0,770.00,300.4
2021-05-03,08:00:00,WET,5.60,2.87,93.3,770.00,323.1
2021-05-03,08:05:00,WET,4.50,3.10,93.5,770.00,351.1
2021-05-03,08:10:00,WET,4.57,2.80,95.7,770.00,278.3
2021-05-03,08:15:00,WET,4.20,2.90,97.0,770.00,323.4
2021-05-03,08:20:00,WET,4.07,2.90,96.0,770.00,311.2
2021-05-03,08:25:00,WET,3.90,2.75,97.5,770.00,449.5
2021-05-03,08:30:00,WET,3.40,2.93,98.0,770.00,453.0
2021-05-03,08:35:00,WET,4.15,2.90,96.0,770.00,406.8
2021-05-03,08:40:00,WET,4.60,3.00,98.3,770.00,237.0
2021-05-03,08:45:00,WET,5.50,2.55,99.0,770.00,277.9
2021-05-03,08:50:00,WET,5.00,2.50,99.7,770.00,207.3
2021-05-03,08:55:00,WET,4.40,2.55,100.0,770.00,300.6
2021-05-03,09:00:00,WET,4.47,2.63,100.0,770.00,320.5
2021-05-03,09:05:00,WET,4.20,2.70,100.0,770.00,319.7
2021-05-03,09:10:00,WET,4.83,2.73,100.0,770.00,339.3
2021-05-03,09:15:00,WET,4.65,2.75,100.0,770.00,282.0
2021-05-03,09:20:00,WET,5.20,2.83,100.0,770.33,432.6
2021-05-03,09:25:00,WET,4.45,2.75,100.0,771.00,416.8
2021-05-03,09:30:00,WET,5.10,2.77,100.0,770.33,348.5
2021-05-03,09:35:00,WET,4.90,2.75,100.0,770.50,532.5
2021-05-03,09:40:00,WET,4.53,2.77,99.7,771.00,484.3
2021-05-03,09:45:00,WET,5.05,2.90,99.5,771.00,654.1
2021-05-03,09:50:00,WET,4.53,2.97,100.0,771.00,406.3
2021-05-03,09:55:00,WET,4.15,3.15,100.0,771.00,819.2
2021-05-03,10:00:00,WET,4.83,3.20,99.0,771.00,728.5
2021-05-03,10:05:00,WET,4.10,3.00,98.5,771.00,740.5
2021-05-03,10:10:00,WET,5.00,3.27,99.0,771.00,729.5
2021-05-03,10:15:00,WET,4.90,3.40,97.0,771.00,729.1
2021-05-03,10:20:00,WET,4.00,3.23,95.0,771.00,743.4
2021-05-03,10:25:00,WET,3.05,3.65,94.5,771.00,710.8
2021-05-03,10:30:00,WET,3.13,4.03,94.0,771.00,823.2
2021-05-03,10:35:00,WET,3.60,3.95,94.0,771.00,753.7
2021-05-03,10:40:00,WET,3.33,4.23,93.7,771.00,633.0
2021-05-03,10:45:00,WET,3.50,4.15,94.0,771.00,495.1
2021-05-03,10:50:00,WET,3.57,3.80,97.7,771.00,467.8
2021-05-03,10:55:00,WET,5.15,3.85,98.0,771.00,766.2
2021-05-03,11:00:00,WET,3.67,3.93,96.7,771.00,430.4
2021-05-03,11:05:00,WET,4.15,3.95,98.5,771.00,450.8
2021-05-03,11:10:00,WET,4.33,3.73,97.7,771.00,521.8
2021-05-03,11:15:00,WET,6.05,3.60,97.5,771.00,580.3
2021-05-03,11:20:00,WET,4.77,3.33,99.3,771.00,569.7
2021-05-03,11:25:00,WET,4.80,3.50,99.5,771.00,529.0
2021-05-03,11:30:00,WET,4.23,3.63,99.0,771.00,484.2
2021-05-03,11:35:00,WET,3.60,3.55,98.0,771.00,604.8
2021-05-03,11:40:00,WET,4.53,3.70,98.7,771.00,545.6
2021-05-03,11:45:00,WET,5.25,3.70,98.5,771.00,547.6
2021-05-03,11:50:00,WET,4.57,3.83,99.3,771.00,482.8
2021-05-03,11:55:00,WET,5.05,3.65,99.0,771.00,462.4
2021-05-03,12:00:00,WET,4.73,3.70,100.0,771.00,308.1
2021-05-03,12:05:00,WET,4.60,3.70,100.0,771.00,435.5
2021-05-03,12:10:00,WET,5.63,3.57,100.0,771.00,442.8
2021-05-03,12:15:00,WET,5.75,3.50,99.5,771.00,487.1
2021-05-03,12:20:00,WET,3.93,3.37,99.7,771.00,683.2
2021-05-03,12:25:00,WET,4.70,3.50,99.5,771.00,517.5
2021-05-03,12:30:00,WET,4.77,3.70,99.7,771.00,741.1
2021-05-03,12:35:00,WET,4.75,3.95,99.5,771.00,1041.3
2021-05-03,12:40:00,WET,4.57,3.93,97.3,771.00,554.9
2021-05-03,12:45:00,WET,5.90,4.00,98.5,771.00,617.9
2021-05-03,12:50:00,WET,3.90,3.77,97.7,771.00,592.9
2021-05-03,12:55:00,WET,4.25,3.95,98.5,771.00,561.5
2021-05-03,13:00:00,WET,4.87,4.00,96.7,771.00,683.8
2021-05-03,13:05:00,WET,4.10,3.95,97.0,771.00,834.4
2021-05-03,13:10:00,WET,5.20,4.03,98.0,771.00,537.8
2021-05-03,13:15:00,WET,3.40,4.00,97.0,771.00,745.6
2021-05-03,13:20:00,WET,4.37,3.93,97.3,771.00,565.6
2021-05-03,13:25:00,WET,2.75,4.00,96.5,771.00,516.2
2021-05-03,13:30:00,WET,3.70,4.10,98.5,771.00,410.4
2021-05-03,13:35:00,WET,5.10,3.90,99.0,771.00,351.8
2021-05-03,13:40:00,WET,4.40,3.77,99.3,771.00,384.8
2021-05-03,13:45:00,WET,4.80,3.80,100.0,771.00,454.4
2021-05-03,13:50:00,WET,5.07,3.80,100.0,771.00,461.5
2021-05-03,13:55:00,WET,5.30,3.95,99.5,771.00,886.6
2021-05-03,14:00:00,WET,4.23,4.10,99.0,771.00,652.8
2021-05-03,14:05:00,WET,4.45,3.95,99.5,771.00,703.2
2021-05-03,14:10:00,WET,5.50,3.63,97.7,771.00,736.1
2021-05-03,14:15:00,WET,4.25,3.90,98.0,771.00,341.0
2021-05-03,14:20:00,WET,5.33,4.17,99.0,771.00,683.2
2021-05-03,14:25:00,WET,6.55,3.95,97.5,771.00,627.2
2021-05-03,14:30:00,WET,6.30,4.20,97.7,771.00,533.2
2021-05-03,14:35:00,WET,4.20,4.05,96.5,771.00,506.0
2021-05-03,14:40:00,WET,6.00,4.00,94.0,771.00,936.5
2021-05-03,14:45:00,WET,4.95,4.30,90.5,771.00,1048.4
2021-05-03,14:50:00,WET,5.90,4.53,94.7,771.00,1094.4
2021-05-03,14:55:00,WET,4.80,4.55,93.5,771.00,582.2
2021-05-03,15:00:00,WET,4.77,4.60,92.7,771.00,1117.7
2021-05-03,15:05:00,WET,6.20,4.70,95.0,771.00,556.1
2021-05-03,15:10:00,WET,4.50,4.77,95.0,771.00,667.9
2021-05-03,15:15:00,WET,4.10,4.55,94.5,771.00,682.3
2021-05-03,15:20:00,WET,4.80,4.37,95.3,771.00,556.8
2021-05-03,15:25:00,WET,5.80,4.25,96.5,771.00,529.1
2021-05-03,15:30:00,WET,3.63,4.77,96.7,771.00,451.9
2021-05-03,15:35:00,WET,5.00,4.70,97.0,771.00,501.1
2021-05-03,15:40:00,WET,3.60,4.33,97.0,771.00,447.8
2021-05-03,15:45:00,WET,3.60,4.20,97.5,771.00,263.1
2021-05-03,15:50:00,WET,4.97,4.40,96.7,771.00,738.7
2021-05-03,15:55:00,WET,4.90,4.20,95.5,771.00,477.9
2021-05-03,16:00:00,WET,3.70,4.23,96.0,771.00,559.8
2021-05-03,16:05:00,WET,4.85,4.45,93.5,771.00,681.5
2021-05-03,16:10:00,WET,5.53,4.30,93.7,771.00,641.6
2021-05-03,16:15:00,WET,3.80,4.25,89.5,771.00,798.6
2021-05-03,16:20:00,WET,4.73,4.53,89.7,771.00,379.1
2021-05-03,16:25:00,WET,3.10,3.80,93.0,771.00,299.8
2021-05-03,16:30:00,WET,4.53,4.00,96.7,771.00,376.4
2021-05-03,16:35:00,WET,5.10,3.80,95.0,771.00,395.8
2021-05-03,16:40:00,WET,5.40,3.97,98.3,771.00,405.0
2021-05-03,16:45:00,WET,4.65,3.85,98.5,771.00,323.0
2021-05-03,16:50:00,WET,4.63,4.00,98.0,771.00,318.5
2021-05-03,16:55:00,WET,5.40,4.00,99.0,771.00,318.8
2021-05-03,17:00:00,WET,4.80,3.70,97.3,771.00,431.6
2021-05-03,17:05:00,WET,5.70,3.85,92.0,771.00,495.6
2021-05-03,17:10:00,WET,5.30,4.00,92.3,771.00,484.4
2021-05-03,17:15:00,WET,6.20,4.05,88.0,771.00,487.9
2021-05-03,17:20:00,WET,4.30,3.73,93.0,771.00,343.0
2021-05-03,17:25:00,WET,3.65,3.75,90.5,771.00,536.7
2021-05-03,17:30:00,WET,4.70,3.80,90.3,771.00,256.5
2021-05-03,17:35:00,WET,4.45,3.80,89.0,771.00,457.7
2021-05-03,17:40:00,WET,3.27,3.67,93.3,771.00,234.6
2021-05-03,17:45:00,WET,3.60,3.50,96.0,771.00,381.0
2021-05-03,17:50:00,WET,3.17,3.63,94.7,771.00,312.1
2021-05-03,17:55:00,WET,3.10,3.35,95.0,771.00,289.0
2021-05-03,18:00:00,WET,3.27,3.23,98.3,771.00,248.6
2021-05-03,18:05:00,WET,3.30,3.35,95.5,771.00,319.7
2021-05-03,18:10:00,WET,3.00,3.47,95.3,771.00,388.8
2021-05-03,18:15:00,WET,4.15,3.45,95.0,771.00,382.7
2021-05-03,18:20:00,WET,3.87,3.33,94.7,771.00,312.5
2021-05-03,18:25:00,WET,3.10,3.00,91.0,771.00,283.3
2021-05-03,18:30:00,WET,3.27,3.17,91.7,771.00,310.8
2021-05-03,18:35:00,WET,5.75,3.35,85.5,771.00,267.3
2021-05-03,18:40:00,WET,3.57,3.23,90.0,771.00,256.0
2021-05-03,18:45:00,WET,5.40,3.55,84.0,771.00,218.6
2021-05-03,18:50:00,WET,3.27,3.00,91.0,771.00,228.1
2021-05-03,18:55:00,WET,2.80,3.35,82.5,771.00,165.7
2021-05-03,19:00:00,WET,3.90,3.70,73.5,771.00,54.7
2021-05-03,19:05:00,WET,3.25,3.75,70.5,771.00,36.3
2021-05-03,19:10:00,WET,4.67,3.70,69.3,771.00,34.1
2021-05-03,19:15:00,WET,3.75,3.60,75.0,771.00,31.8
2021-05-03,19:20:00,WET,3.20,3.47,69.0,771.00,30.3
2021-05-03,19:25:00,WET,2.35,3.40,72.0,771.00,42.3
2021-05-03,19:30:00,WET,3.30,3.47,66.7,771.00,35.1
2021-05-03,19:35:00,WET,3.60,3.50,68.5,771.00,25.2
2021-05-03,19:40:00,WET,3.77,3.67,66.0,771.00,15.9
2021-05-03,19:45:00,WET,3.95,3.80,63.5,771.00,11.6
2021-05-03,19:50:00,WET,3.33,3.60,64.3,771.00,6.9
2021-05-03,19:55:00,WET,4.35,3.45,67.0,771.00,4.0
2021-05-03,20:00:00,WET,4.50,3.23,66.3,771.67,2.4
2021-05-03,20:05:00,WET,3.40,3.05,61.5,771.50,1.7
2021-05-03,20:10:00,WET,3.27,2.73,61.0,772.00,1.2
2021-05-03,20:15:00,WET,2.75,2.90,58.5,772.00,1.2
2021-05-03,20:20:00,WET,3.10,2.80,55.7,772.00,0.8
2021-05-03,20:25:00,WET,4.90,2.70,58.0,772.00,0.6
2021-05-03,20:30:00,WET,4.40,2.83,58.0,772.00,0.9
2021-05-03,20:35:00,WET,4.20,2.60,64.0,772.00,1.1
2021-05-03,20:40:00,WET,4.60,2.07,67.3,772.00,1.0
2021-05-03,20:45:00,WET,5.00,2.00,68.5,772.00,0.9
2021-05-03,20:50:00,WET,4.83,2.17,65.7,772.00,1.1
2021-05-03,20:55:00,WET,4.00,1.80,70.5,772.00,1.4
2021-05-03,21:00:00,WET,3.73,1.80,60.0,772.00,1.2
2021-05-03,21:05:00,DRY,4.15,2.10,53.0,772.00,0.9
2021-05-03,21:10:00,DRY,3.90,2.03,52.3,772.00,1.3
2021-05-03,21:15:00,DRY,3.40,2.15,51.5,772.00,1.3
2021-05-03,21:20:00,WET,4.63,2.23,54.7,772.00,0.7
2021-05-03,21:25:00,WET,4.30,2.05,57.0,772.00,1.0
2021-05-03,21:30:00,WET,5.13,2.10,59.7,772.00,1.3
2021-05-03,21:35:00,WET,4.20,1.95,59.5,772.00,2.4
2021-05-03,21:40:00,WET,4.13,1.80,60.3,772.00,1.1
2021-05-03,21:45:00,WET,3.65,1.90,60.5,772.00,1.1
2021-05-03,21:50:00,WET,4.30,1.87,60.0,772.00,1.2
2021-05-03,21:55:00,WET,4.30,1.95,60.5,772.00,1.1
2021-05-03,22:00:00,WET,4.53,1.97,64.3,772.00,1.1
2021-05-03,22:05:00,WET,4.85,1.90,67.5,772.50,0.9
2021-05-03,22:10:00,WET,3.77,2.07,65.3,772.00,1.2
2021-05-03,22:15:00,WET,4.10,2.10,65.5,772.00,1.1
2021-05-03,22:20:00,WET,3.07,2.03,66.0,772.00,1.4
2021-05-03,22:25:00,WET,5.50,2.10,64.5,772.00,1.4
2021-05-03,22:30:00,WET,4.13,2.10,66.3,772.00,1.3
2021-05-03,22:35:00,WET,4.15,2.05,66.5,772.50,1.8
2021-05-03,22:40:00,WET,4.50,2.13,66.7,772.67,1.5
2021-05-03,22:45:00,WET,4.90,2.15,67.0,772.00,0.9
2021-05-03,22:50:00,WET,3.87,2.10,68.7,772.33,1.1
2021-05-03,22:55:00,WET,4.55,2.15,67.5,772.50,1.3
2021-05-03,23:00:00,WET,4.07,2.33,64.7,772.00,1.0
2021-05-03,23:05:00,WET,4.60,2.60,59.5,773.00,1.1
2021-05-03,23:10:00,WET,3.63,2.77,59.7,772.33,1.0
2021-05-03,23:15:00,WET,3.00,2.75,59.0,772.00,0.9
2021-05-03,23:20:00,WET,3.50,2.60,58.0,772.00,1.9
2021-05-03,23:25:00,WET,1.75,2.55,56.5,772.00,1.2
2021-05-03,23:30:00,WET,2.13,2.47,57.3,772.00,0.5
2021-05-03,23:35:00,WET,3.40,2.50,56.0,772.50,1.9
2021-05-03,23:40:00,WET,3.70,3.10,53.3,772.00,0.9
2021-05-03,23:45:00,WET,3.50,3.25,53.0,772.00,1.2
2021-05-03,23:50:00,WET,3.87,3.30,52.3,772.00,1.1
2021-05-03,23:55:00,WET,3.35,3.50,53.0,772.00,1.3
2021-05-04,00:00:00,WET,3.97,3.67,54.0,772.00,1.4
2021-05-04,00:05:00,WET,4.35,3.80,52.5,772.00,0.9
2021-05-04,00:10:00,WET,4.20,3.83,53.7,772.00,1.2
2021-05-04,00:15:00,WET,3.70,3.85,53.5,772.00,1.1
2021-05-04,00:20:00,WET,3.10,3.80,52.3,772.00,1.2
2021-05-04,00:25:00,WET,3.55,4.00,49.0,772.00,1.2
2021-05-04,00:30:00,DRY,4.43,4.40,47.3,772.00,1.2
2021-05-04,00:35:00,DRY,4.70,4.85,44.0,772.00,2.0
2021-05-04,00:40:00,DRY,4.20,5.03,38.7,772.00,1.5
2021-05-04,00:45:00,DRY,3.55,4.95,41.0,772.00,2.0
2021-05-04,00:50:00,DRY,4.00,4.77,42.0,772.00,1.4
2021-05-04,00:55:00,DRY,5.80,4.85,36.5,772.00,1.1
2021-05-04,01:00:00,DRY,4.67,5.03,35.0,772.00,0.7
2021-05-04,01:05:00,DRY,3.80,4.85,37.0,772.00,1.1
2021-05-04,01:10:00,DRY,4.30,4.60,37.7,772.00,1.0
2021-05-04,01:15:00,DRY,4.15,4.60,38.0,772.00,1.2
2021-05-04,01:20:00,DRY,5.20,4.63,32.7,772.00,1.1
2021-05-04,01:25:00,DRY,5.35,4.95,29.5,772.00,0.9
2021-05-04,01:30:00,DRY,3.93,4.53,30.7,772.00,1.1
2021-05-04,01:35:00,DRY,5.20,4.55,28.0,772.00,1.0
2021-05-04,01:40:00,DRY,5.67,4.93,27.7,772.00,1.4
2021-05-04,01:45:00,DRY,5.10,4.95,27.0,772.00,1.4
2021-05-04,01:50:00,DRY,3.63,4.57,28.7,771.33,1.0
2021-05-04,01:55:00,DRY,4.70,4.35,31.0,771.00,1.2
2021-05-04,02:00:00,DRY,4.03,4.43,30.0,771.00,1.2
2021-05-04,02:05:00,DRY,3.55,4.40,31.0,771.00,1.1
2021-05-04,02:10:00,DRY,4.37,4.37,31.3,771.00,1.3
2021-05-04,02:15:00,DRY,5.15,4.20,27.0,771.00,1.1
2021-05-04,02:20:00,DRY,4.67,3.93,26.3,771.00,1.3
2021-05-04,02:25:00,DRY,3.85,3.95,26.5,771.00,1.1
2021-05-04,02:30:00,DRY,5.03,4.23,31.3,771.00,1.0
2021-05-04,02:35:00,DRY,5.80,4.25,36.5,771.00,0.9
2021-05-04,02:40:00,DRY,5.00,4.17,36.0,771.00,1.3
2021-05-04,02:45:00,DRY,5.85,4.00,37.0,771.00,1.1
2021-05-04,02:50:00,DRY,5.23,4.20,37.3,771.00,1.2
2021-05-04,02:55:00,DRY,5.25,4.25,35.5,771.00,1.1
2021-05-04,03:00:00,DRY,5.80,4.27,31.3,771.00,1.3
2021-05-04,03:05:00,DRY,6.00,4.30,28.0,771.00,1.2
2021-05-04,03:10:00,DRY,5.03,4.00,27.0,771.00,0.8
2021-05-04,03:15:00,DRY,4.35,3.85,29.0,771.00,0.8
2021-05-04,03:20:00,DRY,5.13,3.37,34.0,771.00,1.2
2021-05-04,03:25:00,DRY,5.05,3.80,31.5,771.00,1.2
2021-05-04,03:30:00,DRY,6.03,3.90,35.7,771.00,1.3
2021-05-04,03:35:00,DRY,5.35,4.25,37.0,771.00,1.1
2021-05-04,03:40:00,DRY,5.97,4.13,45.0,771.00,1.2
2021-05-04,03:45:00,WET,6.40,2.85,73.0,771.00,1.5
2021-05-04,03:50:00,WET,6.60,2.50,69.7,771.00,1.3
2021-05-04,03:55:00,WET,5.90,2.85,60.0,771.00,1.2
2021-05-04,04:00:00,WET,5.27,3.77,54.0,771.00,1.3
2021-05-04,04:05:00,WET,3.90,3.60,55.0,771.00,1.2
2021-05-04,04:10:00,WET,5.97,3.27,56.7,771.00,1.3
2021-05-04,04:15:00,WET,6.20,3.45,57.0,771.00,1.8
2021-05-04,04:20:00,WET,4.87,2.27,79.0,771.00,1.6
2021-05-04,04:25:00,WET,5.50,1.25,95.5,771.00,1.5
2021-05-04,04:30:00,WET,6.77,1.57,85.3,771.00,1.4
2021-05-04,04:35:00,WET,6.10,2.60,68.0,771.00,1.4
2021-05-04,04:40:00,WET,5.57,3.07,60.0,771.00,1.0
2021-05-04,04:45:00,WET,7.05,3.55,56.0,771.00,1.9
2021-05-04,04:50:00,WET,6.63,3.37,53.0,771.00,1.3
2021-05-04,04:55:00,WET,6.55,3.35,56.0,771.00,1.3
2021-05-04,05:00:00,WET,7.80,3.33,57.0,771.00,1.2
2021-05-04,05:05:00,WET,6.65,3.00,67.5,771.00,1.2
2021-05-04,05:10:00,WET,5.63,3.13,59.3,771.00,1.2
2021-05-04,05:15:00,WET,6.40,3.45,53.0,771.00,1.3
2021-05-04,05:20:00,WET,5.83,3.50,51.0,771.00,1.1
2021-05-04,05:25:00,WET,7.00,3.60,47.5,771.00,1.1
2021-05-04,05:30:00,DRY,6.47,3.80,39.7,771.00,1.5
2021-05-04,05:35:00,DRY,7.65,3.70,35.5,771.00,1.5
2021-05-04,05:40:00,DRY,6.93,3.60,41.3,771.00,1.6
2021-05-04,05:45:00,DRY,5.30,3.65,38.5,771.00,1.2
2021-05-04,05:50:00,DRY,5.93,3.53,36.0,771.00,1.4
2021-05-04,05:55:00,DRY,5.80,3.55,34.5,771.00,1.4
2021-05-04,06:00:00,DRY,6.77,3.30,37.0,771.00,2.3
2021-05-04,06:05:00,DRY,6.65,3.35,28.5,771.00,1.1
2021-05-04,06:10:00,DRY,5.67,3.30,31.7,771.00,1.5
2021-05-04,06:15:00,DRY,7.45,3.15,26.5,771.00,2.4
2021-05-04,06:20:00,DRY,6.33,3.43,21.7,771.00,3.5
2021-05-04,06:25:00,DRY,7.30,3.70,16.5,771.50,5.7
2021-05-04,06:30:00,DRY,7.07,3.93,13.3,771.33,9.3
2021-05-04,06:35:00,DRY,5.40,3.95,14.0,771.50,23.3
2021-05-04,06:40:00,DRY,5.80,4.23,13.0,772.00,39.5
2021-05-04,06:45:00,DRY,6.05,4.45,14.0,772.00,58.6
2021-05-04,06:50:00,DRY,5.53,4.77,17.0,772.00,82.3
2021-05-04,06:55:00,DRY,6.50,4.90,20.0,772.00,105.4
2021-05-04,07:00:00,DRY,5.70,4.93,20.0,772.00,125.0
2021-05-04,07:05:00,DRY,3.80,4.95,18.5,772.00,144.4
2021-05-04,07:10:00,DRY,4.60,5.07,19.3,772.00,166.2
2021-05-04,07:15:00,DRY,6.05,5.05,17.0,772.00,187.3
2021-05-04,07:20:00,DRY,5.07,4.97,17.0,772.00,209.3
2021-05-04,07:25:00,DRY,6.00,4.95,21.0,772.00,231.8
2021-05-04,07:30:00,DRY,5.07,5.27,23.3,772.00,254.4
2021-05-04,07:35:00,DRY,6.10,5.30,22.5,772.00,277.5
2021-05-04,07:40:00,DRY,4.63,5.37,21.7,772.00,300.1
2021-05-04,07:45:00,DRY,5.20,5.50,21.5,772.00,322.3
2021-05-04,07:50:00,DRY,6.07,5.70,21.7,772.00,345.4
2021-05-04,07:55:00,DRY,5.05,5.90,22.5,772.00,367.8
2021-05-04,08:00:00,DRY,6.17,5.73,23.3,772.00,391.3
2021-05-04,08:05:00,DRY,4.95,5.55,26.5,772.00,413.9
2021-05-04,08:10:00,DRY,4.93,5.73,25.3,772.00,436.3
2021-05-04,08:15:00,DRY,5.75,5.90,26.0,772.00,458.6
2021-05-04,08:20:00,DRY,6.07,6.13,23.0,772.00,480.7
2021-05-04,08:25:00,DRY,3.30,6.45,22.5,772.00,502.4
2021-05-04,08:30:00,DRY,5.37,6.80,22.0,772.00,524.2
2021-05-04,08:35:00,DRY,6.35,6.80,21.0,772.00,544.8
2021-05-04,08:40:00,DRY,5.80,6.90,22.3,772.67,566.3
2021-05-04,08:45:00,DRY,5.25,7.00,24.5,772.50,587.0
2021-05-04,08:50:00,DRY,4.93,6.80,23.7,772.33,607.1
2021-05-04,08:55:00,DRY,6.50,6.50,25.0,773.00,626.9
2021-05-04,09:00:00,DRY,4.10,6.53,26.7,772.67,647.0
2021-05-04,09:05:00,DRY,4.10,6.85,25.0,772.50,667.8
2021-05-04,09:10:00,DRY,2.30,6.93,23.3,772.67,686.5
2021-05-04,09:15:00,DRY,5.25,7.10,22.5,772.50,706.5
2021-05-04,09:20:00,DRY,4.53,6.80,24.3,773.00,724.5
2021-05-04,09:25:00,DRY,5.45,6.95,22.5,773.00,743.5
2021-05-04,09:30:00,DRY,5.13,7.03,23.7,773.00,761.1
2021-05-04,09:35:00,DRY,4.05,7.05,23.0,773.00,780.1
2021-05-04,09:40:00,DRY,5.13,7.20,23.3,773.00,797.6
2021-05-04,09:45:00,DRY,4.90,7.45,24.0,773.00,814.3
2021-05-04,09:50:00,DRY,5.00,7.37,23.7,773.00,832.3
2021-05-04,09:55:00,DRY,6.70,7.30,20.5,773.00,848.3
2021-05-04,10:00:00,DRY,4.77,7.43,23.3,773.00,864.9
2021-05-04,10:05:00,DRY,4.70,7.90,23.5,773.00,881.3
2021-05-04,10:10:00,DRY,5.07,7.83,22.7,773.00,896.6
2021-05-04,10:15:00,DRY,4.55,7.95,24.0,773.00,911.5
2021-05-04,10:20:00,DRY,4.27,8.07,21.7,773.00,926.0
2021-05-04,10:25:00,DRY,4.55,7.90,24.0,773.00,940.7
2021-05-04,10:30:00,DRY,5.17,8.13,24.0,773.00,954.8
2021-05-04,10:35:00,DRY,5.60,8.15,25.0,773.00,965.6
2021-05-04,10:40:00,DRY,4.43,7.77,26.3,773.00,981.1
2021-05-04,10:45:00,DRY,5.35,7.85,26.0,773.00,994.2
2021-05-04,10:50:00,DRY,4.40,7.93,25.0,773.00,1006.7
2021-05-04,10:55:00,DRY,4.55,8.00,26.0,773.00,1019.0
2021-05-04,11:00:00,DRY,4.37,7.93,24.0,773.00,1031.7
2021-05-04,11:05:00,DRY,4.25,8.10,29.5,773.00,1042.1
2021-05-04,11:10:00,DRY,5.37,8.00,35.0,773.00,1052.6
2021-05-04,11:15:00,DRY,3.45,8.25,31.0,773.00,1064.3
2021-05-04,11:20:00,DRY,4.87,8.50,26.7,773.00,1074.3
2021-05-04,11:25:00,DRY,3.75,8.70,24.5,773.00,1083.2
2021-05-04,11:30:00,DRY,4.90,8.60,24.3,773.00,1092.9
2021-05-04,11:35:00,DRY,4.05,8.60,22.5,773.00,1100.7
2021-05-04,11:40:00,DRY,4.20,8.97,24.0,773.00,1109.6
2021-05-04,11:45:00,DRY,5.95,8.85,28.0,773.00,1116.2
2021-05-04,11:50:00,DRY,5.67,8.50,30.3,773.00,1122.9
2021-05-04,11:55:00,DRY,6.75,9.15,19.5,773.00,1129.4
2021-05-04,12:00:00,DRY,6.23,8.97,23.0,773.00,1134.5
2021-05-04,12:05:00,DRY,6.20,9.00,25.0,773.00,1140.4
2021-05-04,12:10:00,DRY,6.70,8.87,20.7,773.00,1146.6
2021-05-04,12:15:00,DRY,4.70,8.25,33.5,773.00,1150.2
2021-05-04,12:20:00,DRY,5.23,8.63,29.0,773.00,1154.0
2021-05-04,12:25:00,DRY,5.95,8.95,28.5,773.00,1158.2
2021-05-04,12:30:00,DRY,4.73,8.73,32.3,773.00,1160.6
2021-05-04,12:35:00,DRY,6.10,8.70,27.0,773.00,1164.1
2021-05-04,12:40:00,DRY,4.90,8.67,30.0,773.00,1166.5
2021-05-04,12:45:00,DRY,5.30,8.90,28.0,773.00,1167.5
2021-05-04,12:50:00,DRY,5.43,8.70,25.7,773.00,1171.3
2021-05-04,12:55:00,DRY,5.75,8.60,28.0,773.00,1173.0
2021-05-04,13:00:00,DRY,5.80,9.03,29.3,773.00,1174.0
2021-05-04,13:05:00,DRY,4.70,8.75,31.0,773.00,1175.5
2021-05-04,13:10:00,DRY,3.73,9.30,29.3,773.00,1174.1
2021-05-04,13:15:00,DRY,5.65,9.90,29.0,773.00,1175.0
2021-05-04,13:20:00,DRY,5.53,9.23,22.3,773.00,1176.0
2021-05-04,13:25:00,DRY,2.70,8.70,22.5,773.00,1172.6
2021-05-04,13:30:00,DRY,5.30,8.65,32.5,773.00,1171.8
2021-05-04,13:35:00,DRY,3.80,9.40,34.0,773.00,1168.3
2021-05-04,13:40:00,DRY,6.50,8.93,31.3,773.00,1167.2
2021-05-04,13:45:00,DRY,4.15,8.75,25.5,773.00,1163.2
2021-05-04,13:50:00,DRY,5.90,8.40,27.3,773.00,1160.7
2021-05-04,13:55:00,DRY,5.15,8.20,31.5,773.00,1155.5
2021-05-04,14:00:00,DRY,6.43,8.47,25.7,773.00,1152.1
2021-05-04,14:05:00,DRY,6.25,8.55,20.0,773.00,1147.3
2021-05-04,14:10:00,DRY,5.13,8.70,30.3,773.00,1143.1
2021-05-04,14:15:00,DRY,6.60,8.40,29.0,773.00,1135.0